Volver al catálogo

FREGAT DEB

LostUNKNOWN
NORAD 46628·DEBRIS·🇷🇺 Russia

Lanzado Jul 18, 2011 desde Baikonur Cosmodrome

Loading…

Próximos Pases (próximas 24 horas)

TLE

ObsoletoSource: Space-Track

Época: Aug 8, 2022, 08:26 UTC

1 46628U 11037MU  22220.35173703 -.00030291  00000-0 -42900+0 0  9996
2 46628  51.4483 329.4988 1637563 100.0373 278.8395 10.08475291 66901

Sigue FREGAT DEB en tiempo real con AllMySat

Download on the App Store